Regional Weather Roundup
Issued by NWS Newport/Morehead, NC

Current Version | Previous Version | Graphics & Text | Print | Product List | Glossary On
Versions: 1 2 3 4 5 6 7 8 9 10 11 12 13 14 15 16 17 18 19 20 21 22 23 24 25 26 27 28 29 30 31 32 33 34 35 36 37 38 39 40 41 42 43 44 45 46 47 48 49 50
000 ASUS42 KMHX 300222 RWRMHX WEATHER ROUNDUP FOR EASTERN NORTH CAROLINA NATIONAL WEATHER SERVICE NEWPORT/MOREHEAD CITY NC 1000 PM EDT TUE JUL 29 2014 NOTE: "FAIR" INDICATES FEW OR NO CLOUDS BELOW 12,000 FEET WITH NO SIGNIFICANT WEATHER AND/OR OBSTRUCTIONS TO VISIBILITY NCZ015>017-031-032-045>047-102-103-300300- NORTH COAST CITY SKY/WX TMP DP RH WIND PRES REMARKS EDENTON CLEAR 69 64 83 E5 29.99R ELIZABETH CITY CLEAR 70 63 78 E5 29.99R KITTY HAWK CLEAR 73 62 68 E6 29.99R MANTEO NOT AVBL $$ NCZ045>047-081-094-103-104-300300- CENTRAL COAST CITY SKY/WX TMP DP RH WIND PRES REMARKS FRISCO PTCLDY 75 65 70 E8 29.98R SWANQUARTER N/A 72 N/A N/A E3G10 29.97R $$ NCZ095-097-098-100-101-300300- SOUTHERN COAST CITY SKY/WX TMP DP RH WIND PRES REMARKS BEAUFORT LGT RAIN 77 68 73 NE7 29.97R CEDAR ISLAND N/A 77 N/A N/A E7G20 30.03R JACKSONVILLE PTCLDY 75 63 66 N6 29.96R NEWPORT NOT AVBL PINEY ISLAND LGT RAIN 76 73 91 NE12 29.97R WILMINGTON MOCLDY 73 70 90 NE5 29.97R $$ NCZ011>013-027>030-043-044-078>080-089-090>093-098-300300- COASTAL PLAIN CITY SKY/WX TMP DP RH WIND PRES REMARKS AHOSKIE CLEAR 65 62 91 CALM 30.00R CLINTON CLEAR 72 64 77 CALM 29.98R ELIZABETHTOWN CLEAR 72 64 75 CALM 29.97R GOLDSBORO PTCLDY 71 64 79 CALM 29.96R GREENVILLE PTCLDY 68 64 88 CALM 30.00R HAVELOCK MOCLDY 76 69 79 E9 29.98R KENANSVILLE PTCLDY 69 63 80 CALM 29.98R KINSTON PTCLDY 70 64 82 CALM 29.99R NEW BERN CLEAR 75 64 68 E5 29.98R RICHLANDS CLOUDY 70 63 78 CALM 29.98R ROANOKE RAPIDS NOT AVBL ROCKY MOUNT CLEAR 67 61 81 CALM 29.98R WASHINGTON PTCLDY 69 63 80 NE3 29.99R WHITEVILLE PTCLDY 74 66 77 CALM 29.96R $$ AMZ130-135-150-152-154-156-158-170-250-252-270-ANZ085-086-088-633-658-670-300300- MARINE OBSERVATIONS STATION/POSITION TIME TEMP WIND PRES WAVE SWELL AIR SEA DIR/SP/G HT/PER HT/PER (UTC) (F) (DEG/KT/KT) (MB) (FT/S) (FT/S) CHESAPEAKE LIGHT NOT AVBL BUOY 44014 0200 74 78 40/ 10/ 12 1015.2 2/ 7 2/ 7 DUCK 0200 74 74 70/ 12/ 14 1015.0 2E DUCK 0200 N/A 2/ 8 OREGON INLET 0200 74 79 50/ 10/ 13 1015.4 BUOY 44095 0200 78 N/A 3/ 7 20E OREGON INLET NOT AVBL HATTERAS CG 0200 76 81 50/ 7/ 14 1015.5 DIAMOND BUOY 0200 VRB 16/ 19 1014.4 4/ 8 2/ 8 CAPE LOOKOUT 0200 77 60/ 17/ 18 1014.6 BEAUFORT LAB 0200 77 83 60/ 6/ 14 1014.5 30 SE NEW RIVER 0200 79 81 80/ 12/ 14 1014.4 3/ 6 2/ 6 5 SE WRIGHTSVILL 0200 72 82 10/ 17/ 19 N/A BUOY 41002 0052 81 81 220/ 17/ 19 1014.3 6/ 7 2/14 BUOY 41004 0200 81 84 40/ 6/ 8 1013.3 2/ 5 2/ 5 $$

USA.gov is the U.S. government's official web portal to all federal, state and local government web resources and services.